CW8371 Weather Reports


time (UTC)temp
C
wind
direction
speed
KPH
gust
KPH
rain 1hr
cm
rain 24hr
cm
rain mn
cm
humidity
%
barometer
mb
20260905223504 18 0 0.0 0.0 0.00 0.03 0.03 88 1012.2
20260905223003 18 0 0.0 0.0 0.00 0.03 0.03 88 1012.0
20260905222504 18 0 0.0 0.0 0.00 0.03 0.03 87 1012.0
20260905222004 18 0 0.0 0.0 0.00 0.03 0.03 88 1012.0
20260905221503 18 0 0.0 0.0 0.00 0.03 0.03 88 1012.0
20260905221004 18 0 0.0 0.0 0.00 0.03 0.03 88 1012.0
20260905220504 18 0 0.0 0.0 0.00 0.03 0.03 88 1011.9
20260905220003 18 0 0.0 0.0 0.00 0.03 0.03 89 1012.0
20260905215503 18 0 0.0 0.0 0.00 0.03 0.03 89 1011.9
20260905215003 18 0 0.0 0.0 0.00 0.03 0.03 89 1011.7
20260905214524 18 0 0.0 0.0 0.03 0.03 0.03 89 1011.7
20260905214003 18 0 0.0 0.0 0.03 0.03 0.03 89 1011.7
20260905213524 18 0 0.0 0.0 0.03 0.03 0.03 89 1011.6
20260905213025 18 121 0.0 3.2 0.03 0.03 0.03 90 1011.5
20260905212503 18 121 0.0 3.2 0.03 0.03 0.03 90 1011.4
20260905212003 18 0 0.0 0.0 0.03 0.03 0.03 90 1011.3
20260905211503 18 121 0.0 1.6 0.03 0.03 0.03 89 1011.3
20260905211003 18 122 1.6 14.5 0.03 0.03 0.03 89 1011.3
20260905210503 18 121 3.2 14.5 0.03 0.03 0.03 88 1011.2
20260905210004 18 111 1.6 14.5 0.03 0.03 0.03 88 1011.2
20260905205503 18 102 1.6 14.5 0.03 0.03 0.03 87 1010.9
20260905205003 18 91 3.2 16.1 0.03 0.03 0.03 86 1011.1
20260905204503 19 87 6.4 20.9 0.00 0.00 0.00 85 1010.9
20260905204003 20 97 9.7 25.7 0.00 0.00 0.00 81 1011.1
20260905203503 20 95 9.7 25.7 0.00 0.00 0.00 79 1011.0
20260905203024 21 88 6.4 20.9 0.00 0.00 0.00 76 1011.0
20260905202503 22 102 4.8 20.9 0.00 0.00 0.00 74 1010.8
20260905202024 22 110 3.2 11.3 0.00 0.00 0.00 74 1010.5
20260905201503 22 112 1.6 14.5 0.00 0.00 0.00 74 1010.5
20260905201024 22 114 0.0 14.5 0.00 0.00 0.00 74 1010.3
20260905200503 22 119 1.6 11.3 0.00 0.00 0.00 73 1010.3
20260905200003 23 119 1.6 11.3 0.00 0.00 0.00 71 1010.1
20260905195503 23 119 0.0 9.7 0.00 0.00 0.00 70 1010.2
20260905195004 24 119 0.0 9.7 0.00 0.00 0.00 70 1010.1
20260905194503 23 0 0.0 9.7 0.00 0.00 0.00 70 1010.0
20260905194003 23 121 1.6 12.9 0.00 0.00 0.00 73 1010.1
20260905193503 22 121 1.6 12.9 0.00 0.00 0.00 73 1010.1
20260905193024 22 116 0.0 6.4 0.00 0.00 0.00 76 1010.1
20260905192503 22 0 0.0 0.0 0.00 0.00 0.00 75 1010.2
20260905192024 22 117 0.0 6.4 0.00 0.00 0.00 77 1010.3
20260905191503 22 117 0.0 6.4 0.00 0.00 0.00 76 1010.3
20260905191003 22 115 0.0 6.4 0.00 0.00 0.00 77 1010.2
20260905190503 22 114 1.6 6.4 0.00 0.00 0.00 76 1010.3
20260905190004 22 113 1.6 9.7 0.00 0.00 0.00 75 1010.3
20260905185503 22 113 3.2 12.9 0.00 0.00 0.00 73 1010.3
20260905185003 23 114 1.6 12.9 0.00 0.00 0.00 72 1010.2
20260905184503 23 123 0.0 6.4 0.00 0.00 0.00 75 1010.3
20260905184003 22 0 0.0 0.0 0.00 0.00 0.00 73 1010.1
20260905183524 22 0 0.0 0.0 0.00 0.00 0.00 73 1010.2
20260905183004 22 0 0.0 0.0 0.00 0.00 0.00 73 1010.4
20260905182524 22 0 0.0 4.8 0.00 0.00 0.00 74 1010.3
20260905182004 22 124 0.0 4.8 0.00 0.00 0.00 73 1010.4
20260905181504 22 125 1.6 11.3 0.00 0.00 0.00 73 1010.2
20260905181004 22 124 3.2 16.1 0.00 0.00 0.00 73 1010.4
20260905180504 22 120 3.2 17.7 0.00 0.00 0.00 71 1010.2
20260905180004 23 96 1.6 17.7 0.00 0.00 0.00 70 1010.2
20260905175504 23 343 0.0 8.0 0.00 0.00 0.00 69 1010.2
20260905175004 23 337 1.6 8.0 0.00 0.00 0.00 66 1010.1
20260905174504 23 335 1.6 9.7 0.00 0.00 0.00 68 1010.3
20260905174004 23 331 1.6 9.7 0.00 0.00 0.00 69 1010.0
20260905173504 22 314 0.0 6.4 0.00 0.00 0.00 73 1010.0
20260905173004 22 314 0.0 6.4 0.00 0.00 0.00 71 1010.1
20260905172504 22 0 0.0 0.0 0.00 0.00 0.00 72 1010.0
20260905172004 22 0 0.0 0.0 0.00 0.00 0.00 71 1010.0
20260905171504 23 314 0.0 6.4 0.00 0.00 0.00 71 1010.0
20260905171004 23 314 0.0 6.4 0.00 0.00 0.00 69 1009.9
20260905170504 23 0 0.0 0.0 0.00 0.00 0.00 71 1009.9
20260905170004 23 313 1.6 9.7 0.00 0.00 0.00 72 1010.0
20260905165504 22 313 1.6 9.7 0.00 0.00 0.00 71 1010.1
20260905165004 22 309 0.0 6.4 0.00 0.00 0.00 72 1010.1
20260905164503 22 305 1.6 8.0 0.00 0.00 0.00 71 1010.2
20260905164003 22 302 1.6 8.0 0.00 0.00 0.00 72 1010.1
20260905163504 22 300 1.6 11.3 0.00 0.00 0.00 73 1010.1
20260905163004 22 300 1.6 11.3 0.00 0.00 0.00 72 1010.1
20260905162503 22 300 1.6 8.0 0.00 0.00 0.00 72 1010.1
20260905162003 22 300 0.0 4.8 0.00 0.00 0.00 72 1010.2
20260905161524 22 300 0.0 1.6 0.00 0.00 0.00 73 1010.2
20260905161004 22 0 0.0 0.0 0.00 0.00 0.00 72 1010.3
20260905160503 22 0 0.0 0.0 0.00 0.00 0.00 71 1010.3
20260905160004 22 0 0.0 0.0 0.00 0.00 0.00 71 1010.2
20260905155504 23 0 0.0 0.0 0.00 0.00 0.00 70 1010.2
20260905155003 22 0 0.0 0.0 0.00 0.00 0.00 73 1010.1
20260905154503 22 300 0.0 3.2 0.00 0.00 0.00 74 1010.1
20260905154003 22 300 0.0 4.8 0.00 0.00 0.00 74 1010.4
20260905153503 22 300 0.0 4.8 0.00 0.00 0.00 73 1010.3
20260905153003 23 300 0.0 3.2 0.00 0.00 0.00 73 1010.2
20260905152503 22 0 0.0 0.0 0.00 0.00 0.00 77 1010.3
20260905152003 22 300 0.0 4.8 0.00 0.00 0.00 74 1010.2
20260905151503 22 300 0.0 4.8 0.00 0.00 0.00 75 1010.4
20260905151003 22 0 0.0 0.0 0.00 0.00 0.00 75 1010.4
20260905150504 22 0 0.0 0.0 0.00 0.00 0.00 75 1010.4
20260905150004 22 296 1.6 8.0 0.00 0.00 0.00 75 1010.3
20260905145504 22 296 1.6 8.0 0.00 0.00 0.00 78 1010.3
20260905145025 21 0 0.0 0.0 0.00 0.00 0.00 81 1010.4
20260905144504 21 0 0.0 0.0 0.00 0.00 0.00 81 1010.4
20260905144003 21 0 0.0 0.0 0.00 0.00 0.00 82 1010.5
20260905143504 21 0 0.0 0.0 0.00 0.00 0.00 83 1010.4
20260905143004 20 0 0.0 0.0 0.00 0.00 0.00 82 1010.4
20260905142504 20 0 0.0 0.0 0.00 0.00 0.00 82 1010.4
20260905142004 20 0 0.0 0.0 0.00 0.00 0.00 82 1010.4
20260905141503 20 0 0.0 0.0 0.00 0.00 0.00 82 1010.4
20260905141004 20 0 0.0 0.0 0.00 0.00 0.00 82 1010.5
20260905140504 20 0 0.0 0.0 0.00 0.00 0.00 83 1010.5
20260905140005 20 0 0.0 0.0 0.00 0.00 0.00 83 1010.5
20260905135525 20 0 0.0 0.0 0.00 0.00 0.00 82 1010.4
20260905135004 20 0 0.0 0.0 0.00 0.00 0.00 83 1010.3
20260905134504 20 292 0.0 4.8 0.00 0.00 0.00 83 1010.3
20260905134025 20 292 0.0 4.8 0.00 0.00 0.00 82 1010.3
20260905133504 20 292 0.0 3.2 0.00 0.00 0.00 84 1010.2
20260905133004 20 0 0.0 0.0 0.00 0.00 0.00 85 1010.1
20260905132504 20 0 0.0 0.0 0.00 0.00 0.00 85 1010.2
20260905132025 20 0 0.0 0.0 0.00 0.00 0.00 85 1010.1
20260905131504 20 292 0.0 1.6 0.00 0.00 0.00 86 1010.1
20260905131004 20 292 0.0 1.6 0.00 0.00 0.00 85 1009.9
20260905130505 19 0 0.0 0.0 0.00 0.00 0.00 87 1009.9
20260905130004 19 0 0.0 0.0 0.00 0.00 0.00 87 1009.9
20260905125504 19 0 0.0 0.0 0.00 0.00 0.00 88 1010.0
20260905125025 19 0 0.0 0.0 0.00 0.00 0.00 89 1010.0
20260905124525 18 0 0.0 0.0 0.00 0.00 0.00 89 1009.9
20260905124004 18 0 0.0 0.0 0.00 0.00 0.00 90 1009.8
20260905123504 18 0 0.0 0.0 0.00 0.00 0.00 90 1009.7
20260905123004 18 0 0.0 0.0 0.00 0.00 0.00 91 1009.7
20260905122504 18 0 0.0 0.0 0.00 0.00 0.00 91 1009.6
20260905122004 17 0 0.0 0.0 0.00 0.00 0.00 92 1009.6
20260905121525 17 0 0.0 0.0 0.00 0.00 0.00 92 1009.5
20260905121004 17 0 0.0 0.0 0.00 0.00 0.00 93 1009.4
20260905120504 17 0 0.0 0.0 0.00 0.00 0.00 94 1009.5
20260905120004 17 0 0.0 0.0 0.00 0.00 0.00 95 1009.5
20260905115504 17 0 0.0 0.0 0.00 0.00 0.00 96 1009.5
20260905115004 16 0 0.0 0.0 0.00 0.00 0.00 97 1009.6
20260905114504 16 0 0.0 0.0 0.00 0.00 0.00 97 1009.5
20260905114004 16 0 0.0 0.0 0.00 0.00 0.00 97 1009.2
20260905113503 16 0 0.0 0.0 0.00 0.00 0.00 97 1009.4
20260905113004 16 0 0.0 0.0 0.00 0.00 0.00 97 1009.3
20260905112525 16 0 0.0 0.0 0.00 0.00 0.00 97 1009.4
20260905112025 15 0 0.0 0.0 0.00 0.00 0.00 97 1009.2
20260905111504 15 0 0.0 0.0 0.00 0.00 0.00 97 1009.4
20260905111024 15 0 0.0 0.0 0.00 0.00 0.00 97 1009.2
20260905110504 15 0 0.0 0.0 0.00 0.00 0.00 97 1009.2
20260905110004 15 0 0.0 0.0 0.00 0.00 0.00 97 1009.2
20260905105504 15 0 0.0 0.0 0.00 0.00 0.00 97 1009.1
20260905105004 15 0 0.0 0.0 0.00 0.00 0.00 97 1009.2
20260905104504 15 0 0.0 0.0 0.00 0.00 0.00 97 1009.1
20260905104004 15 0 0.0 0.0 0.00 0.00 0.00 97 1009.0
20260905103504 15 0 0.0 0.0 0.00 0.00 0.00 97 1009.0
20260905103004 15 0 0.0 0.0 0.00 0.00 0.00 96 1009.0
20260905102504 15 0 0.0 0.0 0.00 0.00 0.00 96 1009.0
20260905102003 15 0 0.0 0.0 0.00 0.00 0.00 96 1009.0
20260905101504 15 0 0.0 0.0 0.00 0.00 0.00 96 1009.0
20260905101024 15 0 0.0 0.0 0.00 0.00 0.00 96 1009.0
20260905100503 15 0 0.0 0.0 0.00 0.00 0.00 96 1009.0
20260905100003 15 0 0.0 0.0 0.00 0.00 0.00 96 1008.9
20260905095503 15 0 0.0 0.0 0.00 0.00 0.00 96 1009.0
20260905095003 15 0 0.0 0.0 0.00 0.00 0.00 96 1009.0
20260905094503 15 0 0.0 0.0 0.00 0.00 0.00 96 1008.8
20260905094003 15 0 0.0 0.0 0.00 0.00 0.00 96 1008.7
20260905093503 15 0 0.0 0.0 0.00 0.00 0.00 96 1008.6
20260905093003 15 0 0.0 0.0 0.00 0.00 0.00 96 1008.9
20260905092504 15 0 0.0 0.0 0.00 0.00 0.00 96 1008.8
20260905092024 15 0 0.0 0.0 0.00 0.00 0.00 96 1008.6
20260905091524 15 0 0.0 0.0 0.00 0.00 0.00 96 1008.6
20260905091003 15 0 0.0 0.0 0.00 0.00 0.00 96 1008.6
20260905090524 15 0 0.0 0.0 0.00 0.00 0.00 96 1008.5
20260905090003 15 0 0.0 0.0 0.00 0.00 0.00 96 1008.5
20260905085503 15 0 0.0 0.0 0.00 0.00 0.00 96 1008.5
20260905085003 15 0 0.0 0.0 0.00 0.00 0.00 95 1008.4
20260905084503 15 0 0.0 0.0 0.00 0.00 0.00 95 1008.4
20260905084003 15 0 0.0 0.0 0.00 0.00 0.00 95 1008.4
20260905083503 15 0 0.0 0.0 0.00 0.00 0.00 95 1008.3
20260905083025 15 0 0.0 0.0 0.00 0.00 0.00 95 1008.4
20260905082503 15 0 0.0 0.0 0.00 0.00 0.00 95 1008.4
20260905082003 15 0 0.0 0.0 0.00 0.00 0.00 95 1008.4
20260905081503 15 0 0.0 0.0 0.00 0.00 0.00 95 1008.4
20260905081003 15 0 0.0 0.0 0.00 0.00 0.00 95 1008.4
20260905080503 15 0 0.0 0.0 0.00 0.00 0.00 95 1008.5
20260905080003 15 0 0.0 0.0 0.00 0.00 0.00 95 1008.5
20260905075503 15 0 0.0 0.0 0.00 0.00 0.00 95 1008.5
20260905075003 15 0 0.0 0.0 0.00 0.00 0.00 95 1008.5
20260905074503 15 0 0.0 0.0 0.00 0.00 0.00 94 1008.5
20260905074003 15 0 0.0 0.0 0.00 0.00 0.00 94 1008.6
20260905073503 15 0 0.0 0.0 0.00 0.00 0.00 94 1008.6
20260905073003 15 0 0.0 0.0 0.00 0.00 0.00 94 1008.6
20260905072503 15 0 0.0 0.0 0.00 0.00 0.00 94 1008.6
20260905072003 15 0 0.0 0.0 0.00 0.00 0.00 94 1008.6
20260905071524 15 0 0.0 0.0 0.00 0.00 0.00 94 1008.7
20260905071024 15 0 0.0 0.0 0.00 0.00 0.00 94 1008.7
20260905070524 15 0 0.0 0.0 0.00 0.00 0.00 94 1008.7
20260905070004 16 0 0.0 0.0 0.00 0.00 0.00 93 1008.7
20260905065503 16 0 0.0 0.0 0.00 0.00 0.00 93 1008.7
20260905065003 16 0 0.0 0.0 0.00 0.00 0.00 93 1008.9
20260905064504 16 0 0.0 0.0 0.00 0.00 0.00 93 1008.9
20260905064003 16 0 0.0 0.0 0.00 0.00 0.00 93 1008.9
20260905063503 16 0 0.0 0.0 0.00 0.00 0.00 93 1008.9
20260905063003 16 0 0.0 0.0 0.00 0.00 0.00 92 1008.9
20260905062503 16 0 0.0 0.0 0.00 0.00 0.00 92 1009.0
20260905062003 16 0 0.0 0.0 0.00 0.00 0.00 92 1009.0
20260905061503 16 0 0.0 0.0 0.00 0.00 0.00 93 1009.0
20260905061003 16 0 0.0 0.0 0.00 0.00 0.00 93 1009.1
20260905060503 16 0 0.0 0.0 0.00 0.00 0.00 93 1009.1
20260905060003 16 0 0.0 0.0 0.00 0.00 0.00 93 1009.2
20260905055503 16 0 0.0 0.0 0.00 0.00 0.00 93 1009.2
20260905055024 16 0 0.0 0.0 0.00 0.00 0.00 93 1009.2
20260905054503 16 0 0.0 0.0 0.00 0.00 0.00 93 1009.2
20260905054003 16 0 0.0 0.0 0.00 0.00 0.00 93 1009.3
20260905053503 16 0 0.0 0.0 0.00 0.00 0.00 93 1009.2
20260905053003 16 0 0.0 0.0 0.00 0.00 0.00 93 1009.3
20260905052503 16 0 0.0 0.0 0.00 0.00 0.00 93 1009.2
20260905052003 16 0 0.0 0.0 0.00 0.00 0.00 93 1009.3
20260905051525 16 0 0.0 0.0 0.00 0.00 0.00 92 1009.3
20260905051003 16 0 0.0 0.0 0.00 0.00 0.00 92 1009.3
20260905050503 16 0 0.0 0.0 0.00 0.00 0.00 92 1009.4
20260905050003 16 0 0.0 0.0 0.00 0.00 0.00 92 1009.5
20260905045504 16 0 0.0 0.0 0.00 0.00 0.00 92 1009.5
20260905045003 16 0 0.0 0.0 0.00 0.00 0.00 92 1009.4
20260905044525 16 0 0.0 0.0 0.00 0.00 0.00 92 1009.3
20260905044003 16 0 0.0 0.0 0.00 0.00 0.00 91 1009.2
20260905043503 16 0 0.0 0.0 0.00 0.00 0.00 92 1009.1
20260905043025 16 0 0.0 0.0 0.00 0.00 0.00 91 1009.1
20260905042524 17 0 0.0 0.0 0.00 0.00 0.00 91 1009.1
20260905042004 17 0 0.0 0.0 0.00 0.00 0.00 90 1009.1
20260905041504 17 0 0.0 0.0 0.00 0.00 0.00 90 1009.2
20260905041003 17 0 0.0 0.0 0.00 0.00 0.00 90 1009.4
20260905040504 17 0 0.0 0.0 0.00 0.00 0.00 90 1009.3
20260905040004 17 0 0.0 0.0 0.00 0.00 0.00 90 1009.3
20260905035504 17 0 0.0 0.0 0.00 0.00 0.00 89 1009.2
20260905035004 17 0 0.0 0.0 0.00 0.00 0.00 89 1009.1
20260905034503 17 0 0.0 0.0 0.00 0.00 0.00 88 1009.1
20260905034003 17 0 0.0 0.0 0.00 0.00 0.00 88 1009.2
20260905033503 17 0 0.0 0.0 0.00 0.00 0.00 88 1009.1
20260905033003 17 0 0.0 0.0 0.00 0.00 0.00 87 1009.2
20260905032503 17 0 0.0 0.0 0.00 0.00 0.00 87 1009.3
20260905032024 17 0 0.0 0.0 0.00 0.00 0.00 87 1009.3
20260905031524 18 0 0.0 0.0 0.00 0.00 0.00 86 1009.3
20260905031003 18 0 0.0 0.0 0.00 0.00 0.00 86 1009.4
20260905030503 18 0 0.0 0.0 0.00 0.00 0.00 84 1009.3
20260905030024 18 0 0.0 0.0 0.00 0.00 0.00 85 1009.4
20260905025503 18 0 0.0 0.0 0.00 0.00 0.00 84 1009.4
20260905025003 18 0 0.0 0.0 0.00 0.00 0.00 84 1009.4
20260905024524 18 0 0.0 0.0 0.00 0.00 0.00 84 1009.4
20260905024003 18 0 0.0 0.0 0.00 0.00 0.00 84 1009.4
20260905023503 18 0 0.0 0.0 0.00 0.00 0.00 84 1009.5
20260905023003 18 0 0.0 0.0 0.00 0.00 0.00 84 1009.5
20260905022524 18 0 0.0 0.0 0.00 0.00 0.00 83 1009.5
20260905022003 18 0 0.0 0.0 0.00 0.00 0.00 83 1009.4
20260905021503 18 0 0.0 0.0 0.00 0.00 0.00 83 1009.5
20260905021024 18 0 0.0 0.0 0.00 0.00 0.00 82 1009.6
20260905020503 18 0 0.0 0.0 0.00 0.00 0.00 82 1009.6
20260905020003 19 0 0.0 0.0 0.00 0.00 0.00 82 1009.7
20260905015503 19 0 0.0 0.0 0.00 0.00 0.00 81 1009.6
20260905015004 19 0 0.0 0.0 0.00 0.00 0.00 80 1009.6
20260905014524 19 0 0.0 0.0 0.00 0.00 0.00 80 1009.6
20260905014003 19 0 0.0 0.0 0.00 0.00 0.00 81 1009.6
20260905013503 19 0 0.0 0.0 0.00 0.00 0.00 80 1009.6
20260905013024 20 0 0.0 0.0 0.00 0.00 0.00 79 1009.6
20260905012503 20 0 0.0 0.0 0.00 0.00 0.00 79 1009.7
20260905012024 20 0 0.0 0.0 0.00 0.00 0.00 78 1009.7
20260905011503 20 0 0.0 0.0 0.00 0.00 0.00 78 1009.6
20260905011003 20 0 0.0 0.0 0.00 0.00 0.00 78 1009.7
20260905010503 20 0 0.0 0.0 0.00 0.00 0.00 78 1009.6
20260905010003 20 0 0.0 0.0 0.00 0.00 0.00 78 1009.5
20260905005504 20 0 0.0 0.0 0.00 0.00 0.00 78 1009.6
20260905005024 20 0 0.0 0.0 0.00 0.00 0.00 77 1009.7
20260905004504 20 0 0.0 0.0 0.00 0.00 0.00 77 1009.6
20260905004004 20 0 0.0 0.0 0.00 0.00 0.00 77 1009.5
20260905003524 20 0 0.0 0.0 0.00 0.00 0.00 77 1009.5
20260905003004 20 0 0.0 0.0 0.00 0.00 0.00 77 1009.6
20260905002503 20 0 0.0 0.0 0.00 0.00 0.00 77 1009.7
20260905002024 20 0 0.0 0.0 0.00 0.00 0.00 77 1009.6
20260905001525 21 0 0.0 0.0 0.00 0.00 0.00 76 1009.4
20260905001004 21 0 0.0 0.0 0.00 0.00 0.00 76 1009.4
20260905000504 21 0 0.0 0.0 0.00 0.00 0.00 76 1009.4
20260905000025 21 0 0.0 0.0 0.00 0.00 0.00 75 1009.4
20260904235525 21 0 0.0 0.0 0.00 0.00 0.00 74 1009.4
20260904235004 21 0 0.0 0.0 0.00 0.00 0.00 74 1009.4
20260904234504 22 0 0.0 0.0 0.00 0.00 0.00 73 1009.3
20260904234025 22 0 0.0 0.0 0.00 0.00 0.00 72 1009.2
20260904233504 22 0 0.0 0.0 0.00 0.00 0.00 71 1009.0
20260904233004 22 0 0.0 0.0 0.00 0.00 0.00 70 1009.1
20260904232525 23 0 0.0 0.0 0.00 0.00 0.00 69 1009.0
20260904232025 23 0 0.0 0.0 0.00 0.00 0.00 68 1008.9
20260904231525 23 0 0.0 0.0 0.00 0.00 0.00 67 1008.8
20260904231004 23 0 0.0 0.0 0.00 0.00 0.00 66 1008.7
20260904230504 24 0 0.0 0.0 0.00 0.00 0.00 66 1008.7
20260904230004 24 0 0.0 0.0 0.00 0.00 0.00 64 1008.7
20260904225504 24 0 0.0 0.0 0.00 0.00 0.00 63 1008.7
20260904225004 24 0 0.0 0.0 0.00 0.00 0.00 63 1008.7
20260904224504 25 0 0.0 0.0 0.00 0.00 0.00 61 1008.8